Home > Weather > Fort St. John > Past weeks

Flag for Canada Weather for the Past 2 Weeks in Fort St. John, British Columbia, Canada

Now
25 °F

Passing clouds.


Feels Like: 20 °F
Forecast: 19 / 33 °F
Wind: 3 mph from Southwest

Location: Fort St John

Current Time: Feb 7, 2016 at 8:49:10 AM

Latest Report: Feb 7, 2016 at 8:00 AM


Visibility: 15 mi

Pressure: 30.39 "Hg (27.84 "Hg at 689m altitude)

Humidity: 63%

Dew point: 14 °F

Location of Fort St. JohnLocation

Historic Weather in Fort St. John — Graph

°F

Fort St. John Temperature Yesterday

Maximum temperature yesterday: 39 °F (at 12:00 AM)
Minimum temperature yesterday: 28 °F (at 10:00 PM)
Average temperature yesterday: 35 °F

High & Low Weather Summary for the Past Weeks

 TemperatureHumidityPressure
High45 °F (Jan 26, 1:00 PM)93% (Jan 23, 2:00 PM)30.39 "Hg (Jan 23, 2:00 PM)
Low0 °F (Jan 24, 10:00 AM)36% (Feb 6, 2:00 PM)29.28 "Hg (Jan 28, 12:00 PM)
Average26 °F74%29.85 "Hg
* Reported Jan 23 7:00 AM — Feb 7 7:00 AM, Fort St. John, Weather by CustomWeather, © 2016

Note: Actual official high and low records may vary slightly from our data, if they occured in-between our weather recording intervals... More about our weather records

Advertising

Fort St. John Weather History for the Previous 24 Hours

 ConditionsComfort  
Time TempWeatherWind HumidityBarometerVisibility
7:00 AM
Sun, Feb 7
25 °FPassing clouds.7 mph63%30.39 "Hg15 mi
6:00 AM25 °FPassing clouds.8 mph63%30.38 "Hg15 mi
5:00 AM25 °FPassing clouds.3 mph63%30.37 "Hg15 mi
4:00 AM25 °FClear.8 mph59%30.35 "Hg15 mi
3:00 AM28 °FClear.18 mph55%30.32 "Hg15 mi
2:00 AM28 °FClear.16 mph55%30.31 "Hg15 mi
1:00 AM28 °FClear.15 mph51%30.29 "Hg15 mi
12:00 AM28 °FClear.12 mph55%30.25 "Hg15 mi
11:00 PM
Sat, Feb 6
28 °FClear.15 mph55%30.25 "Hg15 mi
10:00 PM28 °FClear.12 mph55%30.22 "Hg15 mi
9:00 PM30 °FClear.16 mph51%30.18 "Hg15 mi
8:00 PM30 °FClear.15 mph51%30.15 "Hg15 mi
7:00 PM32 °FPassing clouds.17 mph47%30.13 "Hg15 mi
6:00 PM34 °FPassing clouds.16 mph44%30.11 "Hg15 mi
5:00 PM36 °FPassing clouds.16 mph44%30.06 "Hg15 mi
4:00 PM37 °FPassing clouds.21 mph41%30.03 "Hg15 mi
3:00 PM39 °FPassing clouds.16 mph39%30.00 "Hg15 mi
2:00 PM39 °FPassing clouds.18 mph36%29.97 "Hg15 mi
1:00 PM37 °FBroken clouds.21 mph41%29.94 "Hg15 mi
12:00 PM39 °FBroken clouds.9 mph61%29.91 "Hg15 mi
11:00 AM32 °FLight snow. Partly sunny.6 mph93%29.88 "Hg15 mi
10:00 AM34 °FLight snow. Partly sunny.12 mph87%29.85 "Hg10 mi
9:54 AM34 °FLight snow. Partly sunny.17 mph81%29.83 "Hg10 mi
9:00 AM30 °FLight snow. Low clouds.15 mph93%29.80 "Hg1 mi
8:00 AM36 °FPassing clouds.21 mph56%29.70 "Hg15 mi
Weather by CustomWeather, © 2016

See weather overviewHow to use our weather pages